Location: ????
(32.1228°N, 34.8377°E)
Time: 01:34:35
(UTC+00:00)

Skynet4D Del rocket - Pass Details

Date: 21 September 2020
Orbit: 763 x 1291 km, 26.9° (Epoch: 21 October)

Event Time Altitude Azimuth Distance (km) Brightness Sun altitude
Exits shadow 02:39:27 14° 256° (WSW) 2,077 5.1 -11.2°
Maximum altitude 02:43:52 43° 189° (S) 1,174 4.3 -10.2°
Drops below altitude 10° 02:49:43 10° 120° (ESE) 2,629 7.2 -9.0°
Sets 02:52:38 0° 114° (ESE) 3,662 8.2 -8.4°
